Regional Weather Roundup
Issued by NWS

Home | Current Version | Previous Version | Graphics & Text | Print | Product List | Glossary On
Versions: 1 2 3 4 5 6 7 8 9 10 11 12 13 14 15 16 17 18 19 20 21 22 23 24 25 26 27 28 29 30 31 32 33 34 35 36 37 38 39 40 41 42 43 44 45 46 47 48 49 50
000
ASUS43 KIND 260809
RWRIN

WEATHER ROUNDUP FOR INDIANA
NATIONAL WEATHER SERVICE INDIANAPOLIS IN
400 AM EDT FRI AUG 26 2016

NOTE: "FAIR" INDICATES FEW OR NO CLOUDS BELOW 12,000 FEET WITH NO
SIGNIFICANT WEATHER AND/OR OBSTRUCTIONS TO VISIBILITY.

* - STATION DOES NOT REPORT WEATHER SUCH AS PRECIPITATION OR FOG.

+ - STATION NOT QUALITY CONTROLLED BY THE NATIONAL WEATHER SERVICE.
    USE DATA WITH CAUTION...ESPECIALLY DEWPOINT AND RELATIVE
    HUMIDITY OBSERVATIONS.

INZ001>003-010>013-019-020-260900-
NORTHWEST INDIANA

CITY           SKY/WX    TMP DP  RH WIND       PRES   REMARKS
GARY /AIRPORT/ FAIR      67  67 100 CALM      30.11S FOG
KNOX *+        CLOUDY    64  59  82 CALM      30.10R VSB 1
LA PORTE +     FAIR     N/A N/A N/A CALM      30.12R
MICHIGAN CITY+   N/A     63  63 100 MISG      30.11S FOG
MONTICELLO +   FAIR      68  64  87 CALM      30.09R
RENSSELAER +   FAIR      68  68 100 CALM      30.10F FOG
VALPARAISO     FAIR      68  65  90 CALM      30.11R

$$

LMZ046-743>745-260900-
SOUTHERN LAKE MICHIGAN

STATION/POSITION TIME  TEMP    WIND        PRES    WAVE
                       AIR SEA DIR/SP/G            HT
                 (UTC) (F)     (DEG/KT/KT) (MB)    (FT)
BURNS HARBOR     0703   71     250/  3/  4 1019.6S
MICHIGAN CITY    0700   72     200/  2/  2   N/A
5NW MICH CITY    0800   74 74  320/  6/  8   N/A     1

$$

INZ004-005-014>016-021>024-260900-
NORTH CENTRAL INDIANA

CITY           SKY/WX    TMP DP  RH WIND       PRES   REMARKS
GOSHEN         FOG       65  63  93 CALM      30.11R VSB 1/4
LOGANSPORT +     N/A     68  68 100 N3        30.11S FOG
PERU/GRISSOM   FAIR      70  70 100 CALM      30.09S
ROCHESTER +    FOG       70  70 100 CALM      30.11R VSB 1
SOUTH BEND     FAIR      64  63  96 CALM      30.12R
WARSAW +       FOG       64  64 100 CALM      30.11R VSB 1/2

$$

INZ006>009-017-018-025>027-260900-
NORTHEAST INDIANA

CITY           SKY/WX    TMP DP  RH WIND       PRES   REMARKS
ANGOLA *+      CLEAR     64  55  72 CALM      30.11R
AUBURN +       FOG       68  66  94 CALM      30.11S VSB 1/2
FORT WAYNE     FAIR      68  67  96 CALM      30.11R
HUNTINGTON +   FOG      N/A N/A N/A CALM      30.10S VSB 1/4

$$

INZ028-029-035-036-043>045-051>053-260900-
WEST CENTRAL INDIANA

CITY           SKY/WX    TMP DP  RH WIND       PRES   REMARKS
CRAWFORDSVL +  MOCLDY    70  70 100 CALM      30.11S
GREENCASTLE +  FAIR      72  72 100 CALM      30.10F FOG
LAFAYETTE      MOCLDY    70  70 100 N3        30.08F
TERRE HAUTE    FAIR      73  70  90 CALM      30.08F

$$

INZ030>032-037>040-046>048-054>057-064-065-260900-
CENTRAL INDIANA

CITY           SKY/WX    TMP DP  RH WIND       PRES   REMARKS
INDIANAPOLIS   MOCLDY    76  72  87 CALM      30.09F
-EAGLE CREEK   LGT RAIN  75  73  93 CALM      30.09F
MARION +       FAIR      67  67  99 CALM      30.11S
MT COMFORT *+  MOCLDY    72  72 100 CALM      30.11S
SHELBYVILLE    FAIR      73  70  90 E3        30.09S FOG
ZIONSVILLE +   FAIR      72  71  96 N3        30.11F

$$

INZ033-034-041-042-049-050-058-059-260900-
EAST CENTRAL INDIANA

CITY           SKY/WX    TMP DP  RH WIND       PRES   REMARKS
MUNCIE         FAIR      72  69  90 CALM      30.11S

$$

INZ060-061-067>069-081>083-085>088-260900-
SOUTHWEST INDIANA

CITY           SKY/WX    TMP DP  RH WIND       PRES   REMARKS
EVANSVILLE     FAIR      73  70  90 CALM      30.09S
HUNTINGBURG *+ FAIR      72  66  83 SE3       30.09F
WASHINGTON +   FAIR      72  72 100 MISG      30.07F

$$

INZ062-063-066-070>080-084-089>092-260900-
SOUTH CENTRAL AND SOUTHEAST INDIANA

CITY           SKY/WX    TMP DP  RH WIND       PRES   REMARKS
BLOOMINGTON    FAIR      72  69  90 CALM      30.10S
MADISON *+     FAIR      70  68  94 CALM      30.13R

$$





USA.gov is the U.S. government's official web portal to all federal, state and local government web resources and services.